F1JRN-13 Weather Reports


Display with metric or nautical units.
time (UTC)temp
F
wind
direction
speed
MPH
gust
MPH
rain 1hr
in
rain 24hr
in
rain mn
in
humidity
%
barometer
mb
20260504140949 66 295 10.0 13.0 0.00 0.07 0.07 66 1012.7
20260504130649 70 265 4.0 11.0 0.00 0.07 0.07 65 1012.6
20260504081849 58 7 2.0 4.0 0.00 0.07 0.07 97 1013.7
20260504080949 58 15 0.0 2.0 0.00 0.07 0.07 97 1013.8
20260504050700 54 91 4.0 6.0 0.05 0.00 0.05 98 1013.0
20260504045800 54 82 4.0 5.0 0.04 0.00 0.04 98 1013.1
20260504044900 54 90 4.0 5.0 0.02 0.00 0.02 98 1013.2
20260504044000 54 48 2.0 4.0 0.02 0.00 0.02 98 1013.3
20260504043100 54 6 2.0 2.0 0.01 0.00 0.01 98 1013.3
20260503184609 58 1 0.0 1.0 0.00 0.00 0.00 70 1011.8
20260503183709 58 1 0.0 1.0 0.00 0.00 0.00 70 1011.8
20260503181908 58 1 0.0 1.0 0.00 0.00 0.00 70 1011.8
20260503181008 58 1 0.0 1.0 0.00 0.00 0.00 70 1011.7
20260503180108 58 347 0.0 2.0 0.00 0.00 0.00 70 1011.8
20260503175208 58 333 2.0 3.0 0.00 0.00 0.00 70 1011.6
20260503174309 58 345 2.0 4.0 0.00 0.00 0.00 70 1011.2
20260503173409 59 301 1.0 6.0 0.00 0.00 0.00 69 1010.9
20260503171608 59 307 4.0 8.0 0.00 0.00 0.00 69 1011.0
20260503170708 59 308 4.0 11.0 0.00 0.00 0.00 68 1011.0
20260503151008 69 347 1.0 2.0 0.00 0.00 0.00 62 1011.7
20260503150108 68 3 0.0 2.0 0.00 0.00 0.00 61 1011.6